Regional Weather Roundup
Issued by NWS

Home | Current Version | Previous Version | Graphics & Text | Print | Product List | Glossary Off
Versions: 1 2 3 4 5 6 7 8 9 10 11 12 13 14 15 16 17 18 19 20 21 22 23 24 25 26 27 28 29 30 31 32 33 34 35 36 37 38 39 40 41 42 43 44 45 46 47 48 49 50

000
ASUS43 KTOP 030259
RWRKS

WEATHER ROUNDUP FOR KANSAS
NATIONAL WEATHER SERVICE GOODLAND KS
900 PM CST MON MAR 02 2015

NOTE:  "FAIR" INDICATES FEW OR NO CLOUDS BELOW 12,000 FEET WITH NO
SIGNIFICANT WEATHER AND/OR OBSTRUCTIONS TO VISIBILITY.

KSZ001>006-013>018-027>032-041>047-030400-
NORTHWEST KANSAS

CITY           SKY/WX    TMP DP  RH WIND       PRES   REMARKS
GOODLAND       CLOUDY    31  30  96 S26G37    29.65F WCI  17
HAYS           CLOUDY    28  18  64 S14G21    29.88F WCI  17
HILL CITY      CLOUDY    30  22  72 S14       29.83F WCI  19
RUSSELL        CLOUDY    30  23  75 S18       29.89F WCI  18
$$

KSZ061>065-074>080-084>089-030400-
SOUTHWEST KANSAS

CITY           SKY/WX    TMP DP  RH WIND       PRES   REMARKS
DODGE CITY     CLOUDY    32  24  72 S24G33    29.85F WCI  19
ELKHART          N/A     35  27  73 SW13        N/A  WCI  26
GARDEN CITY    CLOUDY    33  29  85 S25G38    29.78F WCI  20
GREAT BEND     CLOUDY    30  21  69 S23       29.90F WCI  17
LIBERAL        CLOUDY    36  28  75 S17       29.89S WCI  25
$$

KSZ066>073-081>083-090>101-030400-
SOUTHEAST KANSAS

CITY           SKY/WX    TMP DP  RH WIND       PRES   REMARKS
CHANUTE        CLOUDY    34  28  79 S12       30.11F WCI  25
COFFEYVILLE    CLOUDY    35  31  85 S8        30.14F
HUTCHINSON     CLOUDY    32  25  75 S16       30.00F WCI  21
MEDICINE LODGE   N/A     31  26  82 S12G20    29.99F WCI  22
NEWTON         CLOUDY    30  25  80 S13       30.02F WCI  20
PARSONS        CLOUDY    35  30  82 S6        30.14F
WICHITA INTL   CLOUDY    32  28  85 S21       30.02F WCI  20
WICHITA JABRA  CLOUDY    31  29  92 S14       30.02F WCI  21
WINFIELD       CLOUDY    32  31  96 S14       30.07F FOG     WCI  22
$$

KSZ007>012-019>026-033>040-048>060-102>105-030400-
NORTHEAST KANSAS

CITY           SKY/WX    TMP DP  RH WIND       PRES   REMARKS
CONCORDIA      CLOUDY    31  23  72 SE12      29.95F WCI  22
EMPORIA        CLOUDY    31  29  92 S13G23    30.05F FOG     WCI  21
LAWRENCE       CLOUDY    33  22  63 SE9       30.10F
MANHATTAN      CLOUDY    33  25  72 S12       30.03F WCI  24
OLATHE IND     CLOUDY    33  22  63 SE9       30.10F
OLATHE EXE     CLOUDY    33  21  61 SE7       30.09F
SALINA         CLOUDY    33  26  75 S14       30.00F WCI  23
TOPEKA BILLARD CLOUDY    34  22  61 SE16G23   30.06F WCI  24
TOPEKA FORBES  CLOUDY    34  23  64 SE14      30.04F WCI  25
$$



USA.gov is the U.S. government's official web portal to all federal, state and local government web resources and services.